When you browse on this site, cookies collect data to enhance your experience and personalize the content and advertising you see.
Visit our Privacy Policy to learn more. By continuing to use the site, you agree to this use of cookies and data.
EN

Hourly Weather Novyy Svet

Today, 23 September, Wednesday

Time Temperature Precipitation Wind Pressure Humidity
00:00 +14°C° 0 mm 3 mps 748 mmHg 63%
01:00 +14°C° 0 mm 3 mps 748 mmHg 61%
02:00 +14°C° 0 mm 3 mps 748 mmHg 58%
03:00 +14°C° 0 mm 3 mps 748 mmHg 58%
04:00 +14°C° 0 mm 3 mps 747 mmHg 57%
05:00 +15°C° 0 mm 2 mps 747 mmHg 57%
06:00 +17°C° 0 mm 3 mps 747 mmHg 52%
07:00 +20°C° 0 mm 3 mps 747 mmHg 47%
08:00 +22°C° 0 mm 3 mps 748 mmHg 40%
09:00 +24°C° 0 mm 3 mps 748 mmHg 37%
10:00 +26°C° 0 mm 3 mps 747 mmHg 35%
11:00 +27°C° 0 mm 3 mps 747 mmHg 33%
12:00 +27°C° 0 mm 3 mps 747 mmHg 35%
13:00 +27°C° 0 mm 3 mps 747 mmHg 37%
14:00 +28°C° 0 mm 2 mps 747 mmHg 39%
15:00 +26°C° 0 mm 1 mps 746 mmHg 45%
16:00 +25°C° 0 mm 1 mps 746 mmHg 51%
17:00 +23°C° 0 mm 1 mps 746 mmHg 57%
18:00 +22°C° 0 mm 1 mps 746 mmHg 63%
19:00 +20°C° 0 mm 1 mps 746 mmHg 69%
20:00 +19°C° 0 mm 1 mps 746 mmHg 75%
21:00 +18°C° 0 mm 1 mps 745 mmHg 75%
22:00 +18°C° 0 mm 1 mps 745 mmHg 74%
23:00 +18°C° 0 mm 1 mps 745 mmHg 74%

Tomorrow, 24 September, Thursday

Time Temperature Precipitation Wind Pressure Humidity
00:00 +18°C° 0 mm 1 mps 745 mmHg 71%
01:00 +18°C° 0 mm 1 mps 745 mmHg 68%
02:00 +18°C° 0 mm 1 mps 745 mmHg 66%
03:00 +18°C° 0 mm 1 mps 745 mmHg 65%
04:00 +18°C° 0 mm 1 mps 745 mmHg 65%
05:00 +16°C° 0 mm 1 mps 745 mmHg 64%
06:00 +20°C° 0 mm 1 mps 745 mmHg 57%
07:00 +22°C° 0 mm 1 mps 745 mmHg 51%
08:00 +24°C° 0 mm 1 mps 745 mmHg 44%
09:00 +25°C° 0 mm 1 mps 745 mmHg 41%
10:00 +27°C° 0 mm 1 mps 746 mmHg 38%
11:00 +28°C° 0 mm 1 mps 746 mmHg 35%
12:00 +28°C° 0 mm 2 mps 745 mmHg 35%
13:00 +29°C° 0 mm 2 mps 745 mmHg 35%
14:00 +29°C° 0 mm 2 mps 745 mmHg 35%
15:00 +27°C° 0 mm 2 mps 745 mmHg 41%
16:00 +26°C° 0 mm 1 mps 745 mmHg 47%
17:00 +24°C° 0 mm 1 mps 745 mmHg 53%
18:00 +23°C° 0 mm 1 mps 745 mmHg 57%
19:00 +21°C° 0 mm 1 mps 745 mmHg 61%
20:00 +20°C° 0 mm 1 mps 745 mmHg 65%
21:00 +20°C° 0 mm 1 mps 745 mmHg 65%
22:00 +19°C° 0 mm 1 mps 745 mmHg 64%
23:00 +19°C° 0 mm 1 mps 744 mmHg 64%

Day after tomorrow, 25 September, Friday

Time Temperature Precipitation Wind Pressure Humidity
00:00 +19°C° 0 mm 1 mps 744 mmHg 64%
01:00 +19°C° 0 mm 1 mps 744 mmHg 65%
02:00 +17°C° 0 mm 0 mps 744 mmHg 66%
03:00 +19°C° 0 mm 1 mps 744 mmHg 66%
04:00 +19°C° 0 mm 1 mps 744 mmHg 66%
05:00 +19°C° 0 mm 1 mps 744 mmHg 66%
06:00 +20°C° 0 mm 1 mps 744 mmHg 60%
07:00 +22°C° 0 mm 1 mps 744 mmHg 54%
08:00 +24°C° 0 mm 1 mps 744 mmHg 48%
09:00 +25°C° 0 mm 1 mps 744 mmHg 44%
10:00 +27°C° 0 mm 1 mps 744 mmHg 40%
11:00 +28°C° 0 mm 1 mps 744 mmHg 37%
12:00 +28°C° 0 mm 1 mps 743 mmHg 38%
13:00 +28°C° 0 mm 2 mps 743 mmHg 38%
14:00 +28°C° 0 mm 2 mps 743 mmHg 39%
15:00 +27°C° 0 mm 2 mps 743 mmHg 44%
16:00 +26°C° 0 mm 1 mps 742 mmHg 49%
17:00 +24°C° 0 mm 1 mps 742 mmHg 55%
18:00 +23°C° 0 mm 1 mps 742 mmHg 58%
19:00 +22°C° 0 mm 1 mps 742 mmHg 62%
20:00 +20°C° 0 mm 1 mps 742 mmHg 66%
21:00 +20°C° 0 mm 1 mps 742 mmHg 67%
22:00 +18°C° 0 mm 0 mps 742 mmHg 68%
23:00 +18°C° 0 mm 0 mps 741 mmHg 70%

26 September, Saturday

Time Temperature Precipitation Wind Pressure Humidity
00:00 +17°C° 0 mm 0 mps 741 mmHg 70%
01:00 +17°C° 0 mm 0 mps 741 mmHg 69%
02:00 +19°C° 0 mm 1 mps 741 mmHg 69%
03:00 +17°C° 0 mm 0 mps 741 mmHg 71%
04:00 +17°C° 0 mm 0 mps 740 mmHg 72%
05:00 +17°C° 0 mm 0 mps 740 mmHg 73%
06:00 +21°C° 0 mm 1 mps 740 mmHg 66%
07:00 +23°C° 0 mm 1 mps 740 mmHg 60%
08:00 +25°C° 0 mm 1 mps 740 mmHg 53%
09:00 +26°C° 0 mm 1 mps 740 mmHg 50%
10:00 +27°C° 0 mm 2 mps 740 mmHg 46%
11:00 +28°C° 0 mm 2 mps 740 mmHg 42%
12:00 +28°C° 0 mm 2 mps 740 mmHg 42%
13:00 +28°C° 0 mm 2 mps 740 mmHg 42%
14:00 +28°C° 0 mm 2 mps 740 mmHg 42%
15:00 +27°C° 0 mm 2 mps 740 mmHg 48%
16:00 +25°C° 0 mm 2 mps 739 mmHg 54%
17:00 +24°C° 0 mm 2 mps 739 mmHg 61%
18:00 +23°C° 0 mm 2 mps 739 mmHg 67%
19:00 +20°C° 0 mm 2 mps 739 mmHg 72%
20:00 +19°C° 0 mm 2 mps 739 mmHg 78%
21:00 +19°C° 0 mm 2 mps 739 mmHg 77%
22:00 +20°C° 0 mm 2 mps 739 mmHg 75%
23:00 +20°C° 0 mm 2 mps 738 mmHg 74%

27 September, Sunday

Time Temperature Precipitation Wind Pressure Humidity
00:00 +20°C° 0 mm 2 mps 738 mmHg 73%
01:00 +20°C° 0 mm 3 mps 738 mmHg 73%
02:00 +20°C° 0 mm 3 mps 737 mmHg 72%
03:00 +20°C° 0 mm 3 mps 737 mmHg 75%
04:00 +20°C° 0 mm 4 mps 737 mmHg 78%
05:00 +20°C° 0 mm 4 mps 737 mmHg 81%
06:00 +21°C° 0 mm 4 mps 738 mmHg 79%
07:00 +22°C° 0 mm 4 mps 738 mmHg 78%
08:00 +23°C° 0 mm 4 mps 738 mmHg 77%
09:00 +25°C° 0.1 mm 4 mps 738 mmHg 72%
10:00 +26°C° 0.1 mm 3 mps 739 mmHg 68%
11:00 +27°C° 0.1 mm 2 mps 739 mmHg 63%
12:00 +27°C° 0.3 mm 3 mps 739 mmHg 62%
13:00 +27°C° 0.3 mm 4 mps 740 mmHg 61%
14:00 +26°C° 0.3 mm 5 mps 740 mmHg 60%
15:00 +25°C° 0.3 mm 4 mps 740 mmHg 60%
16:00 +24°C° 0.3 mm 3 mps 741 mmHg 61%
17:00 +22°C° 0.3 mm 3 mps 741 mmHg 62%
18:00 +21°C° 0 mm 3 mps 742 mmHg 68%
19:00 +19°C° 0 mm 3 mps 742 mmHg 73%
20:00 +18°C° 0 mm 4 mps 743 mmHg 79%
21:00 +17°C° 0 mm 3 mps 743 mmHg 78%
22:00 +17°C° 0 mm 3 mps 744 mmHg 78%
23:00 +16°C° 0 mm 3 mps 744 mmHg 77%

28 September, Monday

Time Temperature Precipitation Wind Pressure Humidity
00:00 +16°C° 0 mm 2 mps 744 mmHg 79%
01:00 +16°C° 0 mm 2 mps 745 mmHg 80%
02:00 +16°C° 0 mm 2 mps 745 mmHg 81%
03:00 +16°C° 0 mm 2 mps 746 mmHg 79%
04:00 +15°C° 0 mm 1 mps 746 mmHg 78%
05:00 +15°C° 0 mm 1 mps 746 mmHg 76%
06:00 +17°C° 0 mm 2 mps 747 mmHg 71%
07:00 +19°C° 0 mm 2 mps 747 mmHg 67%
08:00 +21°C° 0 mm 2 mps 747 mmHg 62%
09:00 +22°C° 0 mm 3 mps 747 mmHg 58%
10:00 +24°C° 0 mm 3 mps 747 mmHg 55%
11:00 +25°C° 0 mm 3 mps 747 mmHg 52%
12:00 +25°C° 0 mm 3 mps 747 mmHg 50%
13:00 +26°C° 0 mm 3 mps 747 mmHg 48%
14:00 +26°C° 0 mm 3 mps 746 mmHg 46%
15:00 +24°C° 0 mm 3 mps 746 mmHg 54%
16:00 +22°C° 0 mm 3 mps 746 mmHg 62%
17:00 +20°C° 0 mm 3 mps 746 mmHg 70%
18:00 +19°C° 0 mm 3 mps 745 mmHg 73%
19:00 +18°C° 0 mm 3 mps 745 mmHg 76%
20:00 +17°C° 0 mm 3 mps 745 mmHg 79%
21:00 +17°C° 0 mm 3 mps 745 mmHg 78%
22:00 +17°C° 0 mm 3 mps 744 mmHg 76%
23:00 +17°C° 0 mm 3 mps 744 mmHg 74%
Show more